K8JCL-13 Weather Reports


Display with metric or nautical units.
time (UTC)temp
F
wind
direction
speed
MPH
gust
MPH
rain 1hr
in
rain 24hr
in
rain mn
in
humidity
%
barometer
mb
20260508205536 65 19 0.0 0.0 0.00 0.00 0.00 56 1010.0
20260508205033 65 157 0.0 0.0 0.00 0.00 0.00 57 1010.1
20260508204530 65 23 0.0 0.0 0.00 0.00 0.00 55 1010.2
20260508204025 65 19 2.0 5.0 0.00 0.00 0.00 54 1010.2
20260508203521 65 337 0.0 0.0 0.00 0.00 0.00 56 1010.3
20260508203018 65 52 1.0 1.0 0.00 0.00 0.00 55 1010.4
20260508202515 65 275 1.0 1.0 0.00 0.00 0.00 53 1010.7
20260508202012 66 78 0.0 1.0 0.00 0.00 0.00 56 1010.6
20260508201508 66 61 0.0 0.0 0.00 0.00 0.00 54 1010.7
20260508201005 66 346 1.0 2.0 0.00 0.00 0.00 52 1010.5
20260508200502 66 342 0.0 0.0 0.00 0.00 0.00 54 1010.7
20260508195956 66 6 0.0 0.0 0.00 0.00 0.00 54 1010.5
20260508195454 65 12 0.0 0.0 0.00 0.00 0.00 54 1010.5
20260508194950 65 202 0.0 1.0 0.00 0.00 0.00 54 1010.8
20260508194448 66 351 1.0 1.0 0.00 0.00 0.00 51 1010.7
20260508193944 66 207 0.0 0.0 0.00 0.00 0.00 52 1010.8
20260508193441 66 291 1.0 2.0 0.00 0.00 0.00 51 1010.8
20260508192938 66 359 0.0 1.0 0.00 0.00 0.00 51 1010.7
20260508192435 66 253 3.0 5.0 0.00 0.00 0.00 50 1010.9
20260508191932 68 308 2.0 2.0 0.00 0.00 0.00 48 1010.9
20260508191429 68 298 1.0 1.0 0.00 0.00 0.00 53 1011.2
20260508190925 68 36 1.0 2.0 0.00 0.00 0.00 52 1011.0
20260508190423 69 188 1.0 1.0 0.00 0.00 0.00 51 1011.3
20260508185919 70 79 0.0 1.0 0.00 0.00 0.00 52 1011.5
20260508185417 68 103 1.0 2.0 0.00 0.00 0.00 55 1011.3
20260508184914 68 108 1.0 1.0 0.00 0.00 0.00 51 1011.5
20260508184411 67 284 2.0 2.0 0.00 0.00 0.00 53 1011.6
20260508183907 67 294 3.0 3.0 0.00 0.00 0.00 52 1011.5
20260508183404 68 303 1.0 2.0 0.00 0.00 0.00 52 1011.8
20260508182859 68 273 2.0 3.0 0.00 0.00 0.00 52 1011.6
20260508182357 68 321 1.0 1.0 0.00 0.00 0.00 50 1011.8
20260508181852 68 228 1.0 1.0 0.00 0.00 0.00 54 1011.8
20260508181349 67 31 1.0 1.0 0.00 0.00 0.00 52 1012.0
20260508180846 66 317 1.0 1.0 0.00 0.00 0.00 53 1011.9
20260508180343 66 271 1.0 1.0 0.00 0.00 0.00 53 1012.2
20260508175839 66 312 1.0 1.0 0.00 0.00 0.00 55 1012.3
20260508175336 65 257 1.0 1.0 0.00 0.00 0.00 54 1012.1
20260508174834 66 259 3.0 3.0 0.00 0.00 0.00 52 1012.2
20260508174331 66 206 1.0 2.0 0.00 0.00 0.00 54 1012.3
20260508173827 66 46 1.0 2.0 0.00 0.00 0.00 52 1012.3
20260508173325 65 5 0.0 0.0 0.00 0.00 0.00 55 1012.4
20260508172820 65 359 0.0 1.0 0.00 0.00 0.00 57 1012.4
20260508172318 66 108 0.0 1.0 0.00 0.00 0.00 56 1012.7
20260508171814 66 285 1.0 2.0 0.00 0.00 0.00 52 1012.7
20260508171310 67 284 0.0 2.0 0.00 0.00 0.00 55 1012.5
20260508170807 67 48 0.0 0.0 0.00 0.00 0.00 55 1012.6
20260508170306 67 294 2.0 3.0 0.00 0.00 0.00 52 1012.8
20260508165802 68 243 1.0 2.0 0.00 0.00 0.00 54 1012.9
20260508165259 70 282 2.0 3.0 0.00 0.00 0.00 53 1012.9
20260508164755 68 27 1.0 1.0 0.00 0.00 0.00 55 1013.2
20260508164252 67 292 1.0 2.0 0.00 0.00 0.00 50 1013.3
20260508163750 68 11 1.0 2.0 0.00 0.00 0.00 51 1013.2
20260508163247 69 89 1.0 2.0 0.00 0.00 0.00 52 1013.4
20260508162737 68 331 1.0 1.0 0.00 0.00 0.00 54 1013.3
20260508162234 68 292 3.0 3.0 0.00 0.00 0.00 50 1013.5
20260508161731 68 242 1.0 2.0 0.00 0.00 0.00 50 1013.3
20260508161228 67 167 1.0 1.0 0.00 0.00 0.00 52 1013.4
20260508160726 68 357 1.0 1.0 0.00 0.00 0.00 53 1013.6
20260508160225 68 329 0.0 1.0 0.00 0.00 0.00 51 1013.4
20260508155720 68 3 2.0 3.0 0.00 0.00 0.00 53 1013.6
20260508155218 69 310 1.0 1.0 0.00 0.00 0.00 51 1013.6
20260508154714 68 355 1.0 1.0 0.00 0.00 0.00 50 1013.7
20260508154212 67 44 1.0 2.0 0.00 0.00 0.00 53 1013.7
20260508153708 67 348 2.0 3.0 0.00 0.00 0.00 53 1013.7
20260508153206 66 276 1.0 2.0 0.00 0.00 0.00 55 1014.0
20260508152702 66 250 1.0 2.0 0.00 0.00 0.00 54 1013.9
20260508152158 66 256 3.0 5.0 0.00 0.00 0.00 55 1013.9
20260508151654 63 107 1.0 1.0 0.00 0.00 0.00 58 1013.9
20260508151151 64 278 3.0 5.0 0.00 0.00 0.00 57 1014.0
20260508150648 64 315 2.0 3.0 0.00 0.00 0.00 60 1014.1
20260508150144 65 268 2.0 3.0 0.00 0.00 0.00 52 1014.1
20260508145640 64 72 1.0 1.0 0.00 0.00 0.00 59 1014.3
20260508145137 65 56 1.0 1.0 0.00 0.00 0.00 54 1013.9
20260508144635 63 343 2.0 3.0 0.00 0.00 0.00 56 1014.2
20260508144132 62 308 0.0 1.0 0.00 0.00 0.00 60 1014.2
20260508143629 62 332 0.0 0.0 0.00 0.00 0.00 57 1014.2
20260508143126 63 66 0.0 1.0 0.00 0.00 0.00 57 1014.2
20260508142622 63 144 1.0 1.0 0.00 0.00 0.00 59 1014.5
20260508142119 62 70 0.0 0.0 0.00 0.00 0.00 62 1014.4
20260508141616 61 252 1.0 2.0 0.00 0.00 0.00 58 1014.6
20260508141114 60 2 1.0 2.0 0.00 0.00 0.00 61 1014.6
20260508140611 60 128 1.0 2.0 0.00 0.00 0.00 61 1014.2
20260508140108 60 311 0.0 0.0 0.00 0.00 0.00 58 1014.6
20260508135603 60 109 1.0 1.0 0.00 0.00 0.00 62 1014.5
20260508135059 61 76 1.0 1.0 0.00 0.00 0.00 60 1014.4
20260508134556 60 135 1.0 1.0 0.00 0.00 0.00 61 1014.5
20260508134053 60 153 2.0 3.0 0.00 0.00 0.00 60 1014.5
20260508133549 60 150 1.0 1.0 0.00 0.00 0.00 62 1014.7
20260508133047 59 1 2.0 2.0 0.00 0.00 0.00 61 1014.5
20260508132539 59 62 1.0 1.0 0.00 0.00 0.00 59 1014.4
20260508132036 59 163 1.0 1.0 0.00 0.00 0.00 62 1014.6
20260508131531 58 77 0.0 0.0 0.00 0.00 0.00 62 1014.6
20260508131028 58 253 3.0 3.0 0.00 0.00 0.00 59 1014.6
20260508130525 58 334 0.0 0.0 0.00 0.00 0.00 62 1014.1
20260508130021 57 24 0.0 0.0 0.00 0.00 0.00 63 1014.4
20260508125517 57 273 1.0 1.0 0.00 0.00 0.00 62 1014.3
20260508125015 56 292 1.0 2.0 0.00 0.00 0.00 62 1014.5
20260508124513 55 29 0.0 0.0 0.00 0.00 0.00 64 1014.3
20260508124010 55 8 1.0 1.0 0.00 0.00 0.00 66 1014.1
20260508123508 54 20 0.0 1.0 0.00 0.00 0.00 66 1014.3
20260508123004 53 89 0.0 0.0 0.00 0.00 0.00 69 1014.5
20260508122501 53 76 1.0 1.0 0.00 0.00 0.00 70 1014.3
20260508121958 53 275 0.0 0.0 0.00 0.00 0.00 70 1014.3
20260508121456 52 35 0.0 0.0 0.00 0.00 0.00 71 1014.5
20260508120954 51 17 1.0 1.0 0.00 0.00 0.00 74 1014.5
20260508120451 51 5 0.0 0.0 0.00 0.00 0.00 73 1014.4
20260508115949 50 9 0.0 0.0 0.00 0.00 0.00 73 1014.3
20260508115447 50 65 0.0 1.0 0.00 0.00 0.00 73 1014.4
20260508114943 51 48 0.0 0.0 0.00 0.00 0.00 72 1014.3
20260508114440 50 62 0.0 0.0 0.00 0.00 0.00 74 1014.4
20260508113937 49 48 0.0 0.0 0.00 0.00 0.00 75 1014.4
20260508113434 48 62 0.0 0.0 0.00 0.00 0.00 77 1014.3
20260508112931 48 24 0.0 0.0 0.00 0.00 0.00 77 1014.2
20260508112428 48 6 0.0 0.0 0.00 0.00 0.00 78 1013.9
20260508111925 48 20 0.0 0.0 0.00 0.00 0.00 77 1013.8
20260508111422 48 21 0.0 0.0 0.00 0.00 0.00 77 1014.2
20260508110919 48 36 0.0 0.0 0.00 0.00 0.00 77 1014.0
20260508110416 47 78 1.0 1.0 0.00 0.00 0.00 76 1014.0
20260508105910 47 8 0.0 0.0 0.00 0.00 0.00 77 1014.0
20260508105407 47 43 0.0 0.0 0.00 0.00 0.00 78 1013.9
20260508104904 47 10 0.0 0.0 0.00 0.00 0.00 77 1013.8
20260508104402 47 3 0.0 0.0 0.00 0.00 0.00 78 1013.7
20260508103859 46 31 0.0 0.0 0.00 0.00 0.00 78 1013.8
20260508103355 46 5 0.0 0.0 0.00 0.00 0.00 78 1013.7
20260508102853 46 87 0.0 0.0 0.00 0.00 0.00 79 1013.5
20260508102351 46 20 0.0 0.0 0.00 0.00 0.00 79 1013.7
20260508101848 46 22 0.0 0.0 0.00 0.00 0.00 80 1013.7
20260508101345 46 17 0.0 0.0 0.00 0.00 0.00 81 1013.8
20260508100843 45 12 0.0 0.0 0.00 0.00 0.00 80 1013.7
20260508100342 45 19 0.0 0.0 0.00 0.00 0.00 82 1014.0
20260508095836 45 48 0.0 0.0 0.00 0.00 0.00 82 1013.9
20260508095335 45 19 0.0 0.0 0.00 0.00 0.00 83 1013.9
20260508094831 44 37 0.0 0.0 0.00 0.00 0.00 83 1013.7
20260508094328 44 24 0.0 0.0 0.00 0.00 0.00 84 1014.0
20260508093825 44 26 0.0 0.0 0.00 0.00 0.00 84 1013.9
20260508093322 43 26 0.0 0.0 0.00 0.00 0.00 84 1014.1
20260508092820 43 9 0.0 0.0 0.00 0.00 0.00 83 1013.9
20260508092318 44 10 0.0 0.0 0.00 0.00 0.00 83 1014.1
20260508091816 44 13 0.0 0.0 0.00 0.00 0.00 82 1013.7
20260508091312 44 28 0.0 0.0 0.00 0.00 0.00 82 1013.9
20260508090810 44 23 0.0 0.0 0.00 0.00 0.00 81 1013.9
20260508090308 44 31 0.0 0.0 0.00 0.00 0.00 81 1014.1
20260508085803 44 22 0.0 0.0 0.00 0.00 0.00 83 1014.2
20260508085300 44 10 0.0 0.0 0.00 0.00 0.00 83 1014.3
20260508084756 43 358 0.0 0.0 0.00 0.00 0.00 85 1014.0
20260508084254 43 20 0.0 0.0 0.00 0.00 0.00 85 1014.1
20260508083751 43 20 0.0 0.0 0.00 0.00 0.00 86 1013.8
20260508083249 42 28 0.0 0.0 0.00 0.00 0.00 86 1014.2
20260508082748 42 33 0.0 0.0 0.00 0.00 0.00 86 1014.0
20260508082246 42 25 0.0 0.0 0.00 0.00 0.00 86 1014.1
20260508081743 42 10 0.0 0.0 0.00 0.00 0.00 86 1014.2
20260508081240 42 21 0.0 0.0 0.00 0.00 0.00 85 1014.0
20260508080737 42 17 0.0 0.0 0.00 0.00 0.00 85 1014.1
20260508080235 42 21 0.0 0.0 0.00 0.00 0.00 84 1014.0
20260508075731 43 15 0.0 0.0 0.00 0.00 0.00 84 1014.0
20260508075228 43 22 0.0 0.0 0.00 0.00 0.00 83 1013.9
20260508074726 43 18 0.0 0.0 0.00 0.00 0.00 83 1014.1
20260508074224 43 17 0.0 0.0 0.00 0.00 0.00 82 1014.1
20260508073720 43 14 0.0 0.0 0.00 0.00 0.00 82 1013.8
20260508073218 44 14 0.0 0.0 0.00 0.00 0.00 81 1014.1
20260508072714 44 20 0.0 0.0 0.00 0.00 0.00 80 1014.0
20260508072211 45 22 0.0 0.0 0.00 0.00 0.00 78 1013.9
20260508071708 45 26 0.0 0.0 0.00 0.00 0.00 78 1014.0
20260508071207 46 23 0.0 0.0 0.00 0.00 0.00 76 1014.1
20260508070703 46 6 0.0 0.0 0.00 0.00 0.00 76 1014.0
20260508070202 46 26 0.0 0.0 0.00 0.00 0.00 76 1014.1
20260508065659 46 8 0.0 0.0 0.00 0.00 0.00 75 1014.2
20260508065157 47 42 0.0 0.0 0.00 0.00 0.00 74 1014.3
20260508064654 47 52 0.0 0.0 0.00 0.00 0.00 75 1014.1
20260508064152 46 9 0.0 0.0 0.00 0.00 0.00 75 1014.1
20260508063649 46 29 0.0 0.0 0.00 0.00 0.00 75 1014.5
20260508063147 46 323 0.0 0.0 0.00 0.00 0.00 74 1014.5
20260508062644 46 45 0.0 1.0 0.00 0.00 0.00 76 1014.3
20260508062141 46 31 0.0 0.0 0.00 0.00 0.00 74 1014.3
20260508061638 46 38 0.0 0.0 0.00 0.00 0.00 75 1014.4
20260508061136 46 41 0.0 0.0 0.00 0.00 0.00 75 1014.5
20260508060633 46 19 0.0 0.0 0.00 0.00 0.00 75 1014.4
20260508060130 46 18 0.0 0.0 0.00 0.00 0.00 75 1014.5
20260508055625 46 10 0.0 0.0 0.00 0.00 0.00 75 1014.3
20260508055122 46 52 0.0 0.0 0.00 0.00 0.00 75 1014.5
20260508054619 47 43 0.0 0.0 0.00 0.00 0.00 74 1014.5
20260508054116 47 22 0.0 0.0 0.00 0.00 0.00 74 1014.7
20260508053613 46 34 0.0 0.0 0.00 0.00 0.00 74 1014.7
20260508053111 46 33 0.0 0.0 0.00 0.00 0.00 74 1014.6
20260508052608 46 13 0.0 0.0 0.00 0.00 0.00 75 1014.3
20260508052105 46 22 0.0 0.0 0.00 0.00 0.00 74 1014.7
20260508051601 46 19 0.0 0.0 0.00 0.00 0.00 74 1014.4
20260508051056 47 23 0.0 0.0 0.00 0.00 0.00 73 1014.7
20260508050553 47 23 0.0 0.0 0.00 0.00 0.00 73 1014.7
20260508050050 46 11 0.0 0.0 0.00 0.00 0.00 73 1014.5
20260508045546 46 4 0.0 0.0 0.00 0.00 0.00 74 1014.4
20260508045044 46 20 0.0 0.0 0.00 0.00 0.00 74 1014.5
20260508044541 46 22 0.0 0.0 0.00 0.00 0.00 75 1014.6
20260508044037 46 15 0.0 0.0 0.00 0.00 0.00 75 1014.6
20260508043534 46 22 0.0 0.0 0.00 0.00 0.00 75 1014.4
20260508043032 46 6 0.0 0.0 0.00 0.00 0.00 75 1014.3
20260508042528 45 18 0.0 0.0 0.00 0.00 0.00 75 1014.3
20260508042025 45 16 0.0 0.0 0.00 0.00 0.00 75 1014.3
20260508041522 45 18 0.0 0.0 0.00 0.00 0.00 74 1014.4
20260508041018 46 15 0.0 0.0 0.00 0.00 0.00 73 1014.6
20260508040516 46 13 0.0 0.0 0.00 0.00 0.00 73 1014.4
20260508040013 47 6 0.0 0.0 0.00 0.00 0.00 72 1014.4
20260508035510 47 13 0.0 0.0 0.00 0.00 0.00 71 1014.7
20260508035007 47 9 0.0 0.0 0.00 0.00 0.00 72 1014.5
20260508034504 48 13 0.0 0.0 0.00 0.00 0.00 69 1014.5
20260508034001 48 13 0.0 0.0 0.00 0.00 0.00 70 1014.5
20260508033458 48 11 0.0 0.0 0.00 0.00 0.00 69 1014.5
20260508032956 48 10 0.0 0.0 0.00 0.00 0.00 70 1014.2
20260508032453 48 24 0.0 0.0 0.00 0.00 0.00 67 1014.5
20260508031950 48 16 0.0 0.0 0.00 0.00 0.00 67 1014.4
20260508031448 49 18 0.0 0.0 0.00 0.00 0.00 67 1014.6
20260508030942 49 9 0.0 0.0 0.00 0.00 0.00 66 1014.6
20260508030440 49 13 0.0 0.0 0.00 0.00 0.00 66 1014.2
20260508025937 49 8 0.0 0.0 0.00 0.00 0.00 65 1014.3
20260508025434 49 2 0.0 0.0 0.00 0.00 0.00 65 1014.5
20260508024931 49 16 0.0 0.0 0.00 0.00 0.00 65 1014.4
20260508024427 49 7 0.0 0.0 0.00 0.00 0.00 64 1014.2
20260508023924 50 8 0.0 0.0 0.00 0.00 0.00 65 1014.2
20260508023421 49 13 0.0 0.0 0.00 0.00 0.00 64 1014.1
20260508022918 50 14 0.0 0.0 0.00 0.00 0.00 63 1014.2
20260508022413 50 1 0.0 0.0 0.00 0.00 0.00 63 1014.4
20260508021910 50 4 0.0 0.0 0.00 0.00 0.00 65 1014.3
20260508021406 49 357 0.0 0.0 0.00 0.00 0.00 65 1014.1
20260508020902 49 1 0.0 0.0 0.00 0.00 0.00 66 1014.0
20260508020401 49 8 0.0 0.0 0.00 0.00 0.00 64 1014.0
20260508015857 49 11 0.0 0.0 0.00 0.00 0.00 64 1014.2
20260508015355 50 10 0.0 0.0 0.00 0.00 0.00 63 1014.3
20260508014851 50 7 0.0 0.0 0.00 0.00 0.00 64 1014.4
20260508014349 50 9 0.0 0.0 0.00 0.00 0.00 65 1014.2
20260508013844 49 12 0.0 0.0 0.00 0.00 0.00 67 1014.5
20260508013340 50 12 0.0 0.0 0.00 0.00 0.00 66 1014.3
20260508012838 50 12 0.0 0.0 0.00 0.00 0.00 66 1014.2
20260508012335 50 11 0.0 0.0 0.00 0.00 0.00 64 1014.3
20260508011833 50 5 0.0 0.0 0.00 0.00 0.00 64 1014.3
20260508011330 50 6 0.0 0.0 0.00 0.00 0.00 67 1014.3
20260508010827 50 4 0.0 0.0 0.00 0.00 0.00 64 1014.2
20260508010325 51 7 0.0 0.0 0.00 0.00 0.00 61 1014.2
20260508005821 51 6 0.0 0.0 0.00 0.00 0.00 59 1014.2
20260508005318 52 5 0.0 0.0 0.00 0.00 0.00 58 1014.4
20260508004815 52 0 0.0 0.0 0.00 0.00 0.00 58 1014.2
20260508004311 52 2 0.0 0.0 0.00 0.00 0.00 58 1014.3
20260508003807 52 2 0.0 0.0 0.00 0.00 0.00 57 1014.1
20260508003305 53 2 0.0 0.0 0.00 0.00 0.00 56 1014.2
20260508002801 53 1 0.0 0.0 0.00 0.00 0.00 56 1014.2
20260508002258 53 358 0.0 0.0 0.00 0.00 0.00 56 1014.2
20260508001754 53 7 0.0 0.0 0.00 0.00 0.00 53 1014.0
20260508001250 53 9 0.0 0.0 0.00 0.00 0.00 54 1014.2
20260508000746 54 9 0.0 0.0 0.00 0.00 0.00 53 1014.1
20260508000243 55 32 0.0 0.0 0.00 0.00 0.00 52 1013.9
20260507235739 56 6 0.0 0.0 0.00 0.00 0.00 49 1013.8
20260507235238 56 334 1.0 1.0 0.00 0.00 0.00 47 1013.9
20260507234734 56 14 1.0 1.0 0.00 0.00 0.00 49 1013.6
20260507234231 56 334 0.0 0.0 0.00 0.00 0.00 51 1013.9
20260507233727 56 2 0.0 0.0 0.00 0.00 0.00 51 1013.8
20260507233225 57 7 0.0 0.0 0.00 0.00 0.00 49 1014.1
20260507232722 57 26 0.0 0.0 0.00 0.00 0.00 48 1014.0
20260507232219 57 25 1.0 2.0 0.00 0.00 0.00 44 1014.2
20260507231716 57 0 0.0 0.0 0.00 0.00 0.00 48 1014.1
20260507231213 57 358 1.0 1.0 0.00 0.00 0.00 47 1013.9
20260507230710 57 326 1.0 1.0 0.00 0.00 0.00 45 1014.0
20260507230207 57 350 0.0 0.0 0.00 0.00 0.00 46 1014.0
20260507225706 57 20 0.0 0.0 0.00 0.00 0.00 48 1013.8
20260507225203 58 8 0.0 0.0 0.00 0.00 0.00 48 1013.8
20260507224659 58 8 0.0 1.0 0.00 0.00 0.00 49 1013.6
20260507224155 58 300 2.0 2.0 0.00 0.00 0.00 45 1013.8
20260507223651 58 60 0.0 1.0 0.00 0.00 0.00 46 1013.8
20260507223149 58 0 0.0 1.0 0.00 0.00 0.00 45 1013.7
20260507222646 58 4 0.0 1.0 0.00 0.00 0.00 49 1013.8
20260507222142 58 37 0.0 0.0 0.00 0.00 0.00 47 1014.0
20260507221638 59 274 1.0 2.0 0.00 0.00 0.00 44 1013.9
20260507221134 59 352 1.0 1.0 0.00 0.00 0.00 46 1014.2
20260507220632 59 18 1.0 1.0 0.00 0.00 0.00 45 1014.1
20260507220130 58 252 1.0 2.0 0.00 0.00 0.00 43 1014.4
20260507215625 58 274 1.0 2.0 0.00 0.00 0.00 44 1014.2
20260507215123 58 307 2.0 2.0 0.00 0.00 0.00 44 1014.3
20260507214620 58 318 2.0 2.0 0.00 0.00 0.00 43 1014.4
20260507214117 58 290 3.0 3.0 0.00 0.00 0.00 42 1014.2
20260507213613 58 351 2.0 3.0 0.00 0.00 0.00 42 1014.1
20260507213110 58 319 3.0 3.0 0.00 0.00 0.00 44 1014.0
20260507212606 59 171 2.0 2.0 0.00 0.00 0.00 45 1014.3
20260507212103 59 0 3.0 5.0 0.00 0.00 0.00 44 1014.1
20260507211600 59 303 3.0 3.0 0.00 0.00 0.00 45 1014.1
20260507211055 59 245 3.0 5.0 0.00 0.00 0.00 45 1014.1
20260507210553 59 6 3.0 5.0 0.00 0.00 0.00 45 1014.2
20260507210050 59 302 3.0 5.0 0.00 0.00 0.00 45 1013.9